ALLMENDG1 Weather Reports


time (UTC)temp
C
wind
direction
speed
KPH
gust
KPH
rain 1hr
cm
rain 24hr
cm
rain mn
cm
humidity
%
barometer
mb
20260506153210 13 256 16.1 0.0 0.00 0.00 0.08 79 1005.5
20260506150210 17 261 19.3 0.0 0.00 0.00 0.00 62 1004.0
20260506143210 17 240 6.4 0.0 0.00 0.00 0.00 64 1004.1
20260506140210 17 206 1.6 0.0 0.00 0.00 0.00 64 1004.0
20260506133211 17 219 8.0 0.0 0.00 0.00 0.00 64 1004.3
20260506130211 17 17 1.6 0.0 0.00 0.00 0.00 60 1004.3
20260506123210 17 197 3.2 0.0 0.00 0.00 0.00 61 1004.2
20260506120210 16 271 3.2 0.0 0.00 0.00 0.00 63 1004.3
20260506113217 16 132 0.0 0.0 0.00 0.00 0.00 67 1004.2
20260506110210 15 30 3.2 0.0 0.00 0.00 0.00 73 1004.5
20260506100213 15 178 4.8 0.0 0.00 0.00 0.00 76 1005.2
20260506093211 15 227 3.2 0.0 0.00 0.00 0.00 78 1005.2
20260506090211 13 158 1.6 0.0 0.00 0.00 0.00 82 1005.0
20260506083211 13 206 1.6 0.0 0.00 0.00 0.00 85 1005.1
20260506080212 12 139 0.0 0.0 0.00 0.00 0.00 87 1005.2
20260506073211 12 184 3.2 0.0 0.00 0.00 0.00 88 1005.6
20260506070212 12 163 1.6 0.0 0.00 0.00 0.00 89 1005.4
20260506060210 7 128 0.0 0.0 0.00 0.00 0.00 91 1005.4
20260506050211 7 128 1.6 0.0 0.00 0.00 0.00 91 1005.7
20260506043211 7 110 0.0 0.0 0.00 0.00 0.00 91 1005.9
20260506040211 7 149 0.0 0.0 0.00 0.00 0.00 91 1006.0
20260506033211 8 149 0.0 0.0 0.00 0.00 0.00 90 1006.2
20260506030212 8 151 0.0 0.0 0.00 0.00 0.00 90 1006.4
20260506023211 9 202 0.0 0.0 0.00 0.00 0.00 90 1006.6
20260506020212 10 202 0.0 0.0 0.00 0.00 0.00 91 1006.5
20260506013211 10 199 3.2 0.0 0.00 0.00 0.00 91 1007.0
20260506010212 9 115 0.0 0.0 0.00 0.00 0.00 90 1007.1
20260506003209 10 114 0.0 0.0 0.00 0.00 0.00 90 1006.8
20260506000211 10 144 1.6 0.0 0.00 0.00 0.00 90 1007.3
20260505233209 10 105 0.0 0.0 0.00 0.00 0.00 87 1007.5
20260505230209 10 94 0.0 0.0 0.00 0.00 0.00 86 1007.6
20260505223209 11 229 0.0 0.0 0.00 0.00 0.00 87 1007.6
20260505220209 11 254 12.9 0.0 0.00 0.00 0.00 87 1007.5
20260505213211 12 237 8.0 0.0 0.00 0.00 0.00 86 1007.6
20260505210215 12 257 14.5 0.0 0.00 0.00 0.00 85 1007.6
20260505203209 13 246 17.7 0.0 0.00 0.00 0.00 84 1007.4
20260505200210 14 202 11.3 0.0 0.00 0.00 0.00 82 1007.2
20260505193209 15 241 4.8 0.0 0.00 0.00 0.00 78 1007.0
20260505190215 15 312 3.2 0.0 0.00 0.00 0.00 75 1006.3
20260505183212 16 355 6.4 0.0 0.00 0.00 0.00 71 1006.3
20260505180211 16 236 4.8 0.0 0.00 0.00 0.00 69 1005.8
20260505173210 16 253 8.0 0.0 0.00 0.00 0.00 67 1005.6
20260505170210 17 269 12.9 0.0 0.00 0.00 0.00 64 1005.5
20260505163211 17 231 11.3 0.0 0.00 0.00 0.00 62 1005.5